Location: *
(48.8489°N, 2.3218°E)
Time: 06:40:56
(UTC+00:00)

Meteor 2-19 Rocket - Pass Details

Date: 23 August 2019
Orbit: 936 x 959 km, 82.5° (Epoch: 14 September)

Event Time Altitude Azimuth Distance (km) Brightness Sun altitude
Rises 19:21:57 0° 350° (N) 3,646 8.0 -5.5°
Reaches altitude 10° 19:24:29 10° 353° (N) 2,694 7.3 -5.8°
Maximum altitude 19:30:39 77° 79° (E) 980 4.5 -6.8°
Drops below altitude 10° 19:36:45 10° 166° (SSE) 2,660 6.4 -7.7°
Sets 19:39:13 0° 168° (SSE) 3,597 7.1 -8.0°
